www.pogodaiklimat.ru

Погода и климат >> Архив погоды >> Россия >> Красноярский край >> Бор


ПОГОДА в Боре

АРХИВ ПОГОДЫ в Боре

Время (UTC), дата Ветер
(напр.,м/с)
 
Видим.   Явления Облачность Т
(С)
Тd
(С)
f
(%)
Тe
(С)
Тes
(С)
Комфортность P
(гПа)
Po
(гПа)
Тmin
(С)
Tmax
(С)
R
(мм)
R24
(мм)
S
(см)
12 11.12 штиль 0 н/о слабый снег 10/0
[Cs]
-16.9 -18.8 85 -17 -17 1029.3 1021.5 -15.1 0.3
15 11.12 штиль 0 н/о слабый снег 10/0
[As op]
-16.4 -18.3 85 -16 -16 1028.7 1020.9
18 11.12 штиль 0 н/о слабый снег 10/0
[As op]
-16.2 -18.1 85 -16 -16 1028.3 1020.5
21 11.12 штиль 0 н/о слабый снег 10/0
[As op]
-16.6 -18.5 85 -17 -17 1027.6 1019.8
00 12.12 штиль 0 н/о слабый снег 10/0
[As op]
-17.4 -19.3 85 -17 -17 1026.5 1018.7 -17.7 0.4 63
03 12.12 штиль 0 н/о слабый снег 10/0
[As op]
-17.9 -19.8 85 -18 -18 1026.5 1018.5
06 12.12 штиль 0 18 км слабый снег 8/3 600 м
[Sc Cs]
-17.6 -19.5 85 -18 -18 1026.5 1018.5
09 12.12 штиль 0 18 км слабый снег 8/3 600 м
[Sc Cs]
-17.7 -19.6 85 -18 -18 1026.5 1018.5
12 12.12 СЗ 1 н/о слабый снег 4/0
[Cs]
-20.7 -22.6 85 -24 -24 1027.3 1019.3 -17.5 0.2
15 12.12 штиль 0 н/о слабый снег 8/0
[Cs]
-23.1 -25.0 84 -23 -23 1027.9 1019.8
18 12.12 штиль 0 н/о слабый снег 10/0
[Cs]
-23.8 -26.3 80 -24 -24 1028.8 1020.7
21 12.12 штиль 0 н/о слабый снег 10/0
[Cs]
-23.1 -25.0 84 -23 -23 1029.1 1021.0
00 13.12 штиль 0 н/о слабый снег 10/5 600 м
[Sc Cs]
-22.3 -24.2 84 -22 -22 1030.0 1022.0 -24.0 0.5 62
03 13.12 штиль 0 н/о слабый снег 10/8 660 м
[Sc Cs]
-21.0 -23.5 80 -21 -21 1030.2 1022.2
06 13.12 З 1 18 км слабый снег 10/8 600 м
[Sc Cs]
-18.3 -20.2 85 -21 -21 1030.7 1022.7
09 13.12 З 1 н/о {снег} 10/6 600 м
[Sc Cs]
-18.6 -21.2 80 -21 -21 1032.0 1024.0
12 13.12 штиль 0 н/о {снег} 8/0
[Ci fib]
-23.2 -25.7 80 -23 -23 1034.2 1026.0 -17.9 0.0
15 13.12 н/о -25.1 -26.8 86 -19 -19 1036.0 1027.8
18 13.12 штиль 0 н/о 3/0
[Ci fib]
-25.5 -28.0 79 -26 -26 1037.3 1029.1
21 13.12 штиль 0 н/о ясно -25.5 -28.0 79 -26 -26 1038.1 1029.9
00 14.12 штиль 0 н/о слабый снег 6/0
[Cs]
-23.7 -26.3 79 -24 -24 1038.1 1029.9 -25.6 0.0 62
03 14.12 штиль 0 н/о слабый снег 10/0
[Cs]
-20.7 -23.2 80 -21 -21 1038.4 1030.4
06 14.12 Ю 1 18 км слабый снег 10/0
[As op]
-18.1 -20.0 85 -21 -21 1038.4 1030.4
09 14.12 ЮЗ 1 17 км слабый снег 10/0
[As op]
-16.6 -18.5 85 -19 -19 1038.3 1030.4
12 14.12 ЮЗ 1 н/о слабый снег 10/0
[As op]
-15.0 -17.0 85 -18 -18 1038.3 1030.4 -14.9 1
15 14.12 ЮЗ 2 н/о слабый снег 10/0
[As op]
-15.5 -18.2 80 -21 -21 1037.5 1029.6
18 14.12 ЮЗ 2 н/о {снег} 10/0
[Cs]
-16.0 -18.7 80 -21 -21 1036.9 1029.0
21 14.12 Ю 1 н/о 10/0
[Cs]
-15.7 -18.4 80 -18 -18 1035.2 1027.3
00 15.12 Ю 2 н/о 10/6 600 м
[Sc Cs]
-15.2 -17.9 80 -20 -20 1033.0 1025.1 -16.3 0.0 63
03 15.12 ЮЗ 2 н/о слабый снег {метель} 10/0
[As op]
-15.0 -17.7 80 -20 -20 1032.9 1025.0
06 15.12 ЮЗ 1 18 км слабый снег {метель} 10/4 600 м
[Sc As op]
-14.6 -17.4 79 -17 -17 1033.3 1025.4
09 15.12 ЮЗ 1 18 км слабый снег 10/0
[Cs]
-15.7 -18.4 80 -18 -18 1033.8 1025.9
12 15.12 штиль 0 н/о слабый снег 10/0
[As op]
-15.4 -17.3 85 -15 -15 1034.5 1026.6 -14.3 2
15 15.12 Ю 1 н/о слабый снег 10/0
[As op]
-13.2 -15.2 85 -16 -16 1033.8 1025.9
18 15.12 Ю 1 н/о слабый снег 10/0
[As op]
-12.6 -14.6 85 -15 -15 1032.6 1024.9
21 15.12 Ю 1 н/о слабый снег 10/0
[As op]
-12.4 -14.4 85 -15 -15 1031.2 1023.5
00 16.12 Ю 1 н/о слабый снег 10/0
[As op]
-12.2 -14.2 85 -14 -14 1030.3 1022.6 -15.4 0.5 64
03 16.12 Ю 1 н/о слабый снег 10/0
[As op]
-13.0 -15.0 85 -15 -15 1030.0 1022.2
06 16.12 штиль 0 17 км слабый снег 10/0
[As op]
-12.1 -14.1 85 -12 -12 1029.8 1022.1
09 16.12 ЮВ 1 17 км слабый ливневой снег 9/9 600 м
[Cb cap]
-11.9 -13.9 85 -14 -14 1030.3 1022.6
12 16.12 штиль 0 н/о {ливн. осадки, снег} 4/0
[Ci fib]
-16.2 -18.1 85 -16 -16 1032.1 1024.3 -11.7 2
15 16.12 штиль 0 н/о 6/0
[Ci fib]
-19.2 -21.1 85 -19 -19 1034.0 1026.0
18 16.12 штиль 0 н/о слабый снег 10/0
[Cs]
-18.6 -20.5 85 -19 -19 1035.4 1027.4
21 16.12 штиль 0 н/о слабый снег 10/0
[Cs]
-18.9 -20.8 85 -19 -19 1036.4 1028.4
00 17.12 В 1 н/о слабый снег 10/0
[Cs]
-17.3 -19.2 85 -20 -20 1036.2 1028.3 -20.0 0.3 68
03 17.12 штиль 0 н/о {снег} 10/0
[Cs]
-16.2 -18.1 85 -16 -16 1035.9 1028.0
06 17.12 штиль 0 18 км слабый снег 10/0
[Cs]
-14.6 -16.6 85 -15 -14 1035.9 1028.0
09 17.12 штиль 0 18 км слабый снег 10/3 600 м
[Sc Cs]
-13.1 -15.1 85 -13 -13 1036.8 1026.9
12 17.12 Ю 1 н/о слабый снег 10/3 600 м
[Sc Cs]
-9.2 -11.2 85 -12 -12 1033.8 1026.1 -9.1 0.5
15 17.12 Ю 2 н/о слабый ливневой снег 10/10 600 м
[Cb cap]
-9.8 -11.9 85 -14 -14 1031.8 1024.1
18 17.12 ЮЗ 1 н/о {ливн. осадки, снег} 10/10 600 м
[Cb cap]
-9.3 -11.3 85 -12 -12 1030.1 1022.4
21 17.12 ЮЗ 2 н/о 10/10 600 м
[Cb cap]
-8.8 -10.3 89 -13 -13 1028.4 1020.7
00 18.12 ЮЗ 1 н/о слабый ливневой снег 10/10 600 м
[Cb cap]
-8.5 -10.4 86 -11 -11 1028.6 1020.9 -9.9 2 67
03 18.12 ЮЗ 1 н/о {ливн. осадки} 10/6 600 м
[Cb cap Cs]
-9.1 -11.6 82 -11 -11 1029.0 1021.8
06 18.12 ЮЗ 2 18 км слабый ливневой снег 10/10 600 м
[Cb cap]
-9.7 -11.8 85 -14 -14 1028.7 1021.0
09 18.12 ЮЗ 1 17 км слабый снег {ливн. осадки} 10/8 600 м
[Sc Cs]
-9.7 -11.8 85 -12 -12 1028.0 1020.3

 

Местоположение метеостанции Бор (Красноярский край, Россия): широта 61.60 долгота 90.02 высота над уровнем моря 58 м.

В архиве по умолчанию представлена погода в Боре за последнюю неделю. Архивные данные за месяц целиком и за предыдущие месяцы, начиная с января 2011 года, Вы можете получить, выбрав интересующий диапазон дат из раскрывающегося списка и нажав кнопку "Ввод!".

Внимание! Время в таблицах - всемирное. Для получения местного времени необходимо прибавить поправку, которая в Боре равна 7 ч.

Смотрите также архив погоды в соседних городах и на ближайших метеорологических станциях:

Погода в Ворогове (Красноярский край, Россия) (67 км)
Погода в Бахте (Красноярский край, Россия) (110 км)
Погода в Кузьмовке (Эвенкия, Россия) (136 км)
Погода в Ярцеве (Красноярский край, Россия) (147 км)
Погода в Сыме (Красноярский край, Россия) (165 км)
Погода в Вельмо (Красноярский край, Россия) (193 км)
Погода в Верхнеимбатске (Красноярский край, Россия) (203 км)
Погода в Северо-Енисейском (Красноярский край, Россия) (212 км)
Погода в Келлоге (Красноярский край, Россия) (218 км)
Погода в Назимово (Красноярский край, Россия) (240 км)

Пояснения к столбцам:

Ветер - указаны скорость ветра в м/с - средняя за 10 мин, порывы в срок и между сроками (в фигурных скобках) и направление, откуда дует ветер: С - северный, СВ - северо-восточный, В - восточный, ЮВ - юго-восточный, Ю - южный, ЮЗ - юго-западный, З - западный, СЗ - северо-западный.
Видимость - горизонтальная дальность видимости в метрах или километрах. При видимости от 1 до 10 км при отсутствии осадков обычно наблюдается дымка, при ухудшении видимости до 1 км и менее - туман. В сухую погоду видимость может ухудшаться дымом, пылью или мглою.
Явления - указаны атмосферные явления, наблюдавшиеся в срок или в последний час перед сроком; фигурными скобками обозначены явления, наблюдавшиеся между сроками (за 1-3 часа до срока); квадратными скобками обозначены град или гололедные отложения с указанием их диаметра в мм.
Облачность - указаны через наклонную черту общая и нижняя облачность в баллах и высота нижней границы облаков в метрах; квадратными скобками обозначены формы облаков: Ci - перистые, Cs - перисто-слоистые, Cc - перисто-кучевые, Ac - высококучевые, As - высокослоистые, Sc - слоисто-кучевые, Ns - слоисто-дождевые, Cu - кучевые, Cb - кучево-дождевые. Подробнее классификацию облаков см. в Атласе облаков (PDF).
T - Температура воздуха - температура, измеренная на высоте 2 м над землей.
Td - Температура точки росы - температура, при понижении до которой содержащийся в воздухе водяной пар достигнет насыщения.
f - Относительная влажность воздуха - влажноcть воздуха, измеренная на высоте 2 м над землей.
Te - Эффективная температура - температура, которую ощущает одетый по сезону человек в тени. Характеристика душности погоды. При расчете учитывается влияние влажности воздуха и скорости ветра на теплоощущения человека.
Tes - Эффективная температура на солнце - температура, которую ощущает человек, с поправкой на солнечный нагрев. Характеристика знойности погоды. Зависит от высоты солнца над горизонтом, облачности и скорости ветра. Ночью, в пасмурную погоду, а также при ветре 12 м/с и более поправка равна нулю.
P - Атмосферное давление - приведенное к уровню моря атмосферное давление.
Po - Атмосферное давление - измеренное на уровне метеостанции атмосферное давление.
Tmin - Минимальная температура - минимум температуры воздуха на высоте 2 м над землей.
Tmax - Максимальная температура - максимум температуры воздуха на высоте 2 м над землей.
R - Количество осадков - Количество выпавших осадков за период времени, мм. При наведении курсора мыши на число - период времени, за который выпало указанное количество осадков.
R24 - Количество осадков - Количество выпавших осадков за 24 часа, мм.
S - Снежный покров - Высота снежного покрова, см. При наведении курсора мыши на число - состояние снежного покрова и степень покрытия местности в баллах.